Location: Newark
(43.6486°N, 79.3853°W)
Time: 12:48:26
(UTC+00:00)

ISS - Pass Details

Date: 03 April 2020
Orbit: 417 x 419 km, 51.6° (Epoch: 03 June)

Event Time Altitude Azimuth Distance (km) Brightness Sun altitude
Rises 00:18:15 0° 303° (WNW) 2,368 1.7 -6.5°
Reaches altitude 10° 00:20:26 10° 312° (NW) 1,501 0.2 -6.9°
Maximum altitude 00:23:37 38° 22° (NNE) 656 -2.8 -7.5°
Enters shadow 00:26:44 10° 93° (E) 1,474 -1.6 -8.0°
